sat.trackr.live / text

‹ back to catalog

STARLINK-33809

NORAD 63508 · 2025-071R

PAYLOAD ACTIVE UNKNOWN

§ Identity

Operator
Country
US
Launch date
2025-04-07
Launch site
AFWTR
Launch vehicle
Mass (kg)
RCS (m²)

Purposes: comms

External: N2YO · Heavens-Above · Gunter

§ Orbital elements

Epoch: 2026-09-20T09:44:35.024352Z

Period
93.85 min
Inclination
53.1601°
Eccentricity
0.0001251
Mean motion
15.34402145 rev/d
Perigee alt
461.8 km
Apogee alt
463.6 km
Semi-major
6,840.8 km
B*
7.4040e-4
RAAN
313.9052°
Arg perigee
100.4224°
Mean anomaly
259.6920°
Rev number
8,254

§ Raw data

STARLINK-338091 63508U 25071R   26263.40596093  .00024723  00000+0  74040-3 0  99972 63508  53.1601 313.9052 0001251 100.4224 259.6920 15.34402145 82546

JSON: /api/v1/satellites/63508 · /tle

For live sub-satellite position, see the globe view (requires WebGL).

§ Visibility from observer

Set your observer location to see the next 7 days of passes ≥ 10°. The values pass through the URL so the page stays shareable.

No JS? Fill the form by hand. The geolocation button needs JavaScript.